Regional Weather Roundup
Issued by NWS

Home | Current Version | Previous Version | Text Only | Print | Product List | Glossary Off
Versions: 1 2 3 4 5 6 7 8 9 10 11 12 13 14 15 16 17 18 19 20 21 22 23 24 25 26 27 28 29 30 31 32 33 34 35 36 37 38 39 40 41 42 43 44 45 46 47 48 49 50

000
ASUS43 KFSD 201910
RWRSD

WEATHER ROUNDUP FOR SOUTH DAKOTA
NATIONAL WEATHER SERVICE SIOUX FALLS SD
200 PM CDT SAT SEP 20 2014

NOTE: "FAIR" INDICATES FEW OR NO CLOUDS BELOW 12,000 FEET WITH NO
SIGNIFICANT WEATHER AND/OR OBSTRUCTIONS TO VISIBILITY.


SDZ001>005-009-010-012>017-202000-
NORTHWEST AND NORTH CENTRAL SOUTH DAKOTA

CITY           SKY/WX    TMP DP  RH WIND       PRES   REMARKS
BUFFALO          N/A     72  43  35 NW23G31   30.07S
FAITH            N/A     73  45  36 NW28G44   30.07R
MOBRIDGE       MOSUNNY   74  51  44 NW21G36   29.94R
$$

SDZ012>016-024>037-041>051-057-063-072>074-202000-
SOUTHWEST AND SOUTH CENTRAL SOUTH DAKOTA

CITY           SKY/WX    TMP DP  RH WIND       PRES   REMARKS
RAPID CTY ARPT SUNNY     77  42  28 NW28G38   30.15
PIERRE         MOSUNNY   82  46  28 NW25G35   29.95R
CUSTER         SUNNY     70  33  25 NW13G23   30.25S
ELLSWORTH AFB  SUNNY     77  42  28 NW32G39   30.13S
PHILIP         SUNNY     81  44  27 NW33G47   30.03F
PINE RIDGE     SUNNY     80  49  33 NW13G21   30.12F
WINNER         FAIR      84  50  30 W30G37    29.99F
$$

SDZ004>011-016>023-039-040-202000-
NORTHEAST SOUTH DAKOTA

CITY           SKY/WX    TMP DP  RH WIND       PRES   REMARKS
ABERDEEN         N/A    N/A N/A N/A MISG      29.84S
WATERTOWN      MOSUNNY   76  55  48 SW21G28   29.84F
SISSETON         N/A     76  55  48 W20G26    29.76F
$$

SDZ017-020-022-023-036>040-048>070-202000-
SOUTHEAST SOUTH DAKOTA

CITY           SKY/WX    TMP DP  RH WIND       PRES   REMARKS
SIOUX FALLS    MOSUNNY   81  54  39 W16G23    29.89F
HURON          PTSUNNY   83  47  28 W25G32    29.86F
CHAMBERLAIN    MOSUNNY   82  49  32 NW23G31   29.95S
MITCHELL       MOSUNNY   83  54  36 W16G24    29.90F
YANKTON        SUNNY     81  57  44 W15       29.92F
$$

ABBREVIATIONS USED IN REMARKS
   TC - TEMPERATURE IN CELSIUS
  WCI - WIND CHILL INDEX
   HX - HEAT INDEX
  VSB - VISIBILITY




USA.gov is the U.S. government's official web portal to all federal, state and local government web resources and services.